FW6374 Jacksonville FL US current weather conditions

sailwx.info

Wind from 303 at 3 knots gusting 9

Air temperature 12.2° C
Dewpoint 8.1° C

Last reported at 2020-Jan-25 14:01 UTC.
Time now 2020-Jan-25 15:16 UTC

Location: N 30°19' W 081°42'.
View on Google Maps.

See reports from other nearby stations

  
Tides and Currents Weather Stations Pressure Air Temp Water Temp Dewpoint Dewpoint Depression Visibility Wind Speed Wind Dir Waves Ship Positions
date/time (UTC)wind fromknots sea level pressurealtimeterstation pressurevisibilityair tempwater tempwave heightnotes
2020-Jan-25 14:51 065 3 gusting 9 13.9
2020-Jan-25 14:46 313 3 gusting 9 13.9
2020-Jan-25 14:41 330 3 gusting 7 13.9
2020-Jan-25 14:36 336 3 gusting 7 13.3
2020-Jan-25 14:31 272 3 gusting 10 13.3
2020-Jan-25 14:26 307 3 gusting 10 13.3
2020-Jan-25 14:21 042 4 gusting 9 13.3
2020-Jan-25 14:16 074 3 gusting 9 12.8
2020-Jan-25 14:11 312 3 gusting 9 12.8
2020-Jan-25 14:06 053 3 gusting 9 12.8
2020-Jan-25 14:01 303 3 gusting 9 12.2
2020-Jan-25 13:56 336 3 gusting 9 12.2
2020-Jan-25 13:51 330 3 gusting 8 12.2
2020-Jan-25 13:46 200 3 gusting 7 11.7
2020-Jan-25 13:41 340 3 gusting 9 12.2
2020-Jan-25 13:36 012 3 gusting 9 11.7
2020-Jan-25 13:31 153 3 gusting 7 11.7
2020-Jan-25 13:26 291 2 gusting 7 11.7
2020-Jan-25 13:21 276 2 gusting 7 11.1
2020-Jan-25 13:16 008 1 gusting 7 11.1
2020-Jan-25 13:11 316 2 gusting 6 10.6
2020-Jan-25 13:06 270 1 gusting 6 10.6
2020-Jan-25 13:01 260 0 gusting 4 10.6
2020-Jan-25 12:56 337 1 gusting 5 10.6
2020-Jan-25 12:51 327 1 gusting 5 10.6
2020-Jan-25 12:46 359 1 gusting 3 10.6
2020-Jan-25 12:41 308 1 gusting 3 10.6
2020-Jan-25 12:36 281 0 gusting 3 10.6
2020-Jan-25 12:31 10.6
2020-Jan-25 12:26 10.6
2020-Jan-25 12:21 253 0 gusting 3 11.1
2020-Jan-25 12:16 189 0 gusting 3 11.1
2020-Jan-25 12:11 297 0 gusting 3 11.1
2020-Jan-25 12:06 317 0 gusting 3 11.1
2020-Jan-25 12:01 257 0 gusting 3 11.1
2020-Jan-25 11:56 11.1
2020-Jan-25 11:51 284 11.1
2020-Jan-25 11:46 296 11.1
2020-Jan-25 11:41 11.7
2020-Jan-25 11:36 11.7
2020-Jan-25 11:31 321 11.7
2020-Jan-25 11:26 11.7
2020-Jan-25 11:21 289 0 gusting 3 11.7
2020-Jan-25 11:16 11.7
2020-Jan-25 11:11 284 11.7
2020-Jan-25 11:06 294 12.2
2020-Jan-25 11:01 310 12.2
2020-Jan-25 10:56 313 12.2
2020-Jan-25 10:51 12.2
2020-Jan-25 10:46 12.2
2020-Jan-25 10:41 127 0 gusting 2 12.8
2020-Jan-25 10:36 286 0 gusting 2 12.8
2020-Jan-25 10:31 12.8
2020-Jan-25 10:29 12.8
2020-Jan-25 10:21 12.8
2020-Jan-25 10:16 12.8
2020-Jan-25 10:11 085 1 gusting 4 12.8
2020-Jan-25 10:06 326 1 gusting 4 13.3
2020-Jan-25 10:01 039 1 gusting 4 13.3
2020-Jan-25 09:56 312 0 gusting 4 13.3
2020-Jan-25 09:51 321 1 gusting 4 13.3
2020-Jan-25 09:46 13.3
2020-Jan-25 09:41 305 1 gusting 6 13.3
2020-Jan-25 09:36 150 1 gusting 6 13.9
2020-Jan-25 09:31 13.9
2020-Jan-25 09:26 327 2 gusting 6 13.9
2020-Jan-25 09:21 329 2 gusting 6 13.9
2020-Jan-25 09:16 358 2 gusting 6 13.9
2020-Jan-25 09:11 285 2 gusting 9 13.9
2020-Jan-25 09:06 341 2 gusting 9 14.4
2020-Jan-25 09:01 292 2 gusting 6 14.4
2020-Jan-25 08:56 108 2 gusting 8 14.4
2020-Jan-25 08:51 339 2 gusting 8 14.4
2020-Jan-25 08:46 318 2 gusting 8 14.4
2020-Jan-25 08:41 312 2 gusting 6 14.4
2020-Jan-25 08:36 036 2 gusting 6 14.4
2020-Jan-25 08:31 321 1 gusting 5 14.4
2020-Jan-25 08:26 322 1 gusting 5 15.0
2020-Jan-25 08:21 001 1 gusting 5 15.0
2020-Jan-25 08:16 308 1 gusting 4 15.0
2020-Jan-25 08:11 328 1 gusting 4 15.0
2020-Jan-25 08:06 352 1 gusting 4 15.0
2020-Jan-25 08:01 295 1 gusting 4 15.0
2020-Jan-25 07:56 265 1 gusting 5 15.6
2020-Jan-25 07:51 287 1 gusting 5 15.6
2020-Jan-25 07:46 286 1 gusting 5 15.6
2020-Jan-25 07:41 293 1 gusting 6 15.6
2020-Jan-25 07:36 287 2 gusting 7 15.6
2020-Jan-25 07:31 257 2 gusting 7 15.6
2020-Jan-25 07:26 342 1 gusting 6 15.6
2020-Jan-25 07:21 300 2 gusting 6 15.6
2020-Jan-25 07:16 025 2 gusting 6 16.1
2020-Jan-25 07:11 292 1 gusting 6 16.1
2020-Jan-25 07:06 16.1
2020-Jan-25 07:01 16.1
2020-Jan-25 06:56 302 2 gusting 6 16.1
2020-Jan-25 06:51 284 1 gusting 6 16.7
2020-Jan-25 06:45 294 2 gusting 6 16.7
2020-Jan-25 06:40 198 2 gusting 6 16.7
2020-Jan-25 06:35 247 2 gusting 5 16.7
2020-Jan-25 06:30 318 1 gusting 5 16.7
2020-Jan-25 06:25 322 1 gusting 5 16.7
2020-Jan-25 06:20 306 1 gusting 5 16.7
2020-Jan-25 06:15 277 2 gusting 6 16.7
2020-Jan-25 06:10 301 1 gusting 6 16.7
2020-Jan-25 06:05 218 2 gusting 6 17.2
2020-Jan-25 06:00 288 3 gusting 6 17.2
2020-Jan-25 05:55 274 3 gusting 7 17.2
2020-Jan-25 05:50 294 3 gusting 10 17.2
2020-Jan-25 05:45 304 3 gusting 10 17.2
2020-Jan-25 05:40 271 2 gusting 6 17.2
2020-Jan-25 05:35 303 2 gusting 5 17.8
2020-Jan-25 05:30 325 3 gusting 10 17.8
2020-Jan-25 05:25 318 4 gusting 10 17.8
2020-Jan-25 05:20 303 3 gusting 8 17.8
2020-Jan-25 05:15 067 3 gusting 9 17.2
2020-Jan-25 05:10 295 4 gusting 10 17.8
2020-Jan-25 05:05 222 5 gusting 14 17.8
2020-Jan-25 05:00 277 5 gusting 14 17.8
2020-Jan-25 04:55 279 4 gusting 11 17.8
2020-Jan-25 04:50 301 4 gusting 12 17.2
2020-Jan-25 04:45 279 3 gusting 12 17.2
2020-Jan-25 04:40 330 2 gusting 6 17.2
2020-Jan-25 04:35 300 1 gusting 6 17.2
2020-Jan-25 04:30 303 1 gusting 6 17.2
2020-Jan-25 04:25 247 1 gusting 4 17.2
2020-Jan-25 04:20 251 0 gusting 3 17.2
2020-Jan-25 04:15 291 0 gusting 3 17.2
2020-Jan-25 04:10 271 0 gusting 3 17.2
2020-Jan-25 04:05 17.8
2020-Jan-25 04:00 227 0 gusting 2 17.8
2020-Jan-25 03:55 17.8
2020-Jan-25 03:50 145 0 gusting 3 17.8
2020-Jan-25 03:45 210 1 gusting 5 17.8
2020-Jan-25 03:40 192 1 gusting 5 17.8
2020-Jan-25 03:35 17.8
2020-Jan-25 03:30 281 1 gusting 5 17.8
2020-Jan-25 03:25 266 2 gusting 8 17.8
2020-Jan-25 03:20 17.8
2020-Jan-25 03:15 292 1 gusting 4 17.8
2020-Jan-25 03:10 228 0 gusting 4 17.8
2020-Jan-25 03:05 151 0 gusting 4 17.8
2020-Jan-25 03:00 274 0 gusting 2 17.8
2020-Jan-25 02:55 236 0 gusting 2 17.8
2020-Jan-25 02:50 17.8
2020-Jan-25 02:45 175 0 gusting 2 17.8
2020-Jan-25 02:40 255 0 gusting 3 17.8
2020-Jan-25 02:35 198 0 gusting 3 17.8
2020-Jan-25 02:30 17.8
2020-Jan-25 02:25 17.8
2020-Jan-25 02:20 17.8
2020-Jan-25 02:15 172 0 gusting 3 17.8
2020-Jan-25 02:10 17.8
2020-Jan-25 02:05 271 0 gusting 3 17.8
2020-Jan-25 02:00 165 0 gusting 3 17.8
2020-Jan-25 01:55 251 0 gusting 2 17.8
2020-Jan-25 01:50 140 0 gusting 2 17.8
2020-Jan-25 01:45 17.8
2020-Jan-25 01:40 166 0 gusting 1 17.8
2020-Jan-25 01:35 172 0 gusting 2 17.8
2020-Jan-25 01:30 189 0 gusting 2 17.8
2020-Jan-25 01:20 17.8
2020-Jan-25 01:15 135 17.8
2020-Jan-25 01:10 146 17.8
2020-Jan-25 01:05 190 17.8
2020-Jan-25 01:00 17.8
2020-Jan-25 00:50 17.8
2020-Jan-25 00:45 143 17.8
2020-Jan-25 00:40 17.8
2020-Jan-25 00:35 184 0 gusting 2 18.3
2020-Jan-25 00:30 181 1 gusting 2 18.3
2020-Jan-25 00:25 184 1 gusting 2 18.3
2020-Jan-25 00:20 172 1 gusting 2 18.3
2020-Jan-25 00:15 176 1 gusting 3 18.9
2020-Jan-25 00:10 18.9
2020-Jan-25 00:05 18.9
2020-Jan-25 00:00 204 1 gusting 3 19.4
2020-Jan-24 23:55 19.4
2020-Jan-24 23:50 19.4
2020-Jan-24 23:45 185 1 gusting 4 19.4
2020-Jan-24 23:40 202 1 gusting 5 19.4
2020-Jan-24 23:35 158 1 gusting 5 19.4
2020-Jan-24 23:30 160 1 gusting 3 19.4
2020-Jan-24 23:25 166 1 gusting 3 19.4
2020-Jan-24 23:20 143 1 gusting 3 20.0
2020-Jan-24 23:15 194 1 gusting 3 20.0
2020-Jan-24 23:10 204 0 gusting 2 20.0
2020-Jan-24 23:05 204 0 gusting 5 20.0
2020-Jan-24 23:00 20.0
2020-Jan-24 22:55 259 1 gusting 4 20.6
2020-Jan-24 22:50 206 2 gusting 6 20.6
2020-Jan-24 22:45 218 2 gusting 6 20.6
2020-Jan-24 22:40 181 1 gusting 6 20.6
2020-Jan-24 22:35 188 2 gusting 6 21.1
2020-Jan-24 22:30 201 2 gusting 4 21.1
2020-Jan-24 22:25 213 2 gusting 5 21.1
2020-Jan-24 22:20 212 2 gusting 7 21.1
2020-Jan-24 22:15 251 2 gusting 7 21.1
2020-Jan-24 22:10 243 1 gusting 6 21.1
2020-Jan-24 22:05 210 1 gusting 5 21.1
2020-Jan-24 22:00 268 1 gusting 4 21.1
2020-Jan-24 21:55 203 1 gusting 3 21.1
2020-Jan-24 21:50 228 1 gusting 3 21.1
2020-Jan-24 21:45 280 1 gusting 4 21.1
2020-Jan-24 21:40 287 2 gusting 6 21.1
2020-Jan-24 21:35 297 1 gusting 6 21.1
2020-Jan-24 21:30 295 1 gusting 4 21.1
2020-Jan-24 21:25 283 2 gusting 5 21.1
2020-Jan-24 21:20 319 2 gusting 8 21.1
2020-Jan-24 21:15 216 2 gusting 8 21.1
2020-Jan-24 21:10 230 2 gusting 8 21.7
2020-Jan-24 21:05 237 1 gusting 8 21.7
2020-Jan-24 21:00 280 1 gusting 6 21.7
2020-Jan-24 20:55 215 2 gusting 6 21.7
2020-Jan-24 20:50 220 1 gusting 8 22.2
2020-Jan-24 20:45 277 1 gusting 8 21.7
2020-Jan-24 20:40 186 1 gusting 6 21.7
2020-Jan-24 20:35 314 2 gusting 7 21.7
2020-Jan-24 20:30 181 3 gusting 8 21.7
2020-Jan-24 20:25 249 3 gusting 10 21.7
2020-Jan-24 20:20 197 2 gusting 10 22.2
2020-Jan-24 20:15 153 2 gusting 6 22.2
2020-Jan-24 20:10 233 2 gusting 6 22.2
2020-Jan-24 20:05 183 2 gusting 6 21.7
2020-Jan-24 19:59 233 1 gusting 6 21.7
2020-Jan-24 19:54 201 1 gusting 6 21.7
2020-Jan-24 19:49 215 2 gusting 6 22.2
2020-Jan-24 19:44 266 2 gusting 6 22.2
2020-Jan-24 19:39 335 2 gusting 6 22.2
2020-Jan-24 19:34 22.2
2020-Jan-24 19:24 176 2 gusting 6 22.8
2020-Jan-24 19:19 189 3 gusting 8 22.8
2020-Jan-24 19:14 165 3 gusting 10 22.8
2020-Jan-24 19:09 216 3 gusting 10 22.8
2020-Jan-24 19:04 167 3 gusting 9 22.8
2020-Jan-24 18:59 119 2 gusting 9 22.2
2020-Jan-24 18:54 109 3 gusting 8 22.2
2020-Jan-24 18:49 206 3 gusting 8 22.2
2020-Jan-24 18:44 187 3 gusting 8 22.8
2020-Jan-24 18:39 249 3 gusting 7 22.8
2020-Jan-24 18:34 142 3 gusting 8 22.2
2020-Jan-24 18:29 179 3 gusting 8 22.2
2020-Jan-24 18:24 177 3 gusting 8 22.2
2020-Jan-24 18:19 198 3 gusting 9 22.2
2020-Jan-24 18:14 168 3 gusting 9 22.2
2020-Jan-24 18:09 184 4 gusting 9 22.2
2020-Jan-24 18:04 185 3 gusting 9 22.2
2020-Jan-24 17:59 161 3 gusting 7 21.7
2020-Jan-24 17:54 230 3 gusting 7 21.7
2020-Jan-24 17:49 220 3 gusting 7 21.7
2020-Jan-24 17:44 143 3 gusting 7 21.7
2020-Jan-24 17:39 177 2 gusting 7 21.7
2020-Jan-24 17:34 080 2 gusting 6 22.2
2020-Jan-24 17:29 183 2 gusting 6 22.2
2020-Jan-24 17:24 165 2 gusting 6 22.8
2020-Jan-24 17:19 164 3 gusting 7 22.2
2020-Jan-24 17:14 236 3 gusting 8 22.2
2020-Jan-24 17:09 183 3 gusting 8 22.2
2020-Jan-24 17:04 158 4 gusting 10 21.7
2020-Jan-24 16:59 257 4 gusting 10 21.7
2020-Jan-24 16:54 143 3 gusting 9 21.7
2020-Jan-24 16:49 206 3 gusting 11 21.7
2020-Jan-24 16:44 185 3 gusting 11 21.7
2020-Jan-24 16:39 221 3 gusting 9 21.7
2020-Jan-24 16:34 225 3 gusting 8 21.7
2020-Jan-24 16:29 190 3 gusting 10 21.1
2020-Jan-24 16:24 184 3 gusting 10 21.1
2020-Jan-24 16:19 242 3 gusting 8 21.1
2020-Jan-24 16:14 188 3 gusting 8 21.1
2020-Jan-24 16:09 157 2 gusting 7 21.1
2020-Jan-24 16:04 273 2 gusting 6 20.6
2020-Jan-24 15:59 189 2 gusting 6 20.6
2020-Jan-24 15:54 174 2 gusting 6 20.6
2020-Jan-24 15:49 185 2 gusting 6 20.6
2020-Jan-24 15:44 083 3 gusting 6 20.0
2020-Jan-24 15:39 206 3 gusting 7 20.0
2020-Jan-24 15:34 203 2 gusting 7 20.0
2020-Jan-24 15:29 211 2 gusting 6 19.4
2020-Jan-24 15:24 228 2 gusting 6 19.4
2020-Jan-24 15:19 160 2 gusting 6 19.4
2020-Jan-24 15:14 171 2 gusting 5 18.9
2020-Jan-24 15:10 211 2 gusting 6 18.9
2020-Jan-24 15:04 197 2 gusting 7 18.9
2020-Jan-24 14:59 232 3 gusting 7 18.3
2020-Jan-24 14:54 143 2 gusting 7 18.3
2020-Jan-24 14:49 193 2 gusting 7 18.3
2020-Jan-24 14:44 249 2 gusting 6 18.3
2020-Jan-24 14:39 135 2 gusting 6 17.8
2020-Jan-24 14:34 226 2 gusting 6 17.8
2020-Jan-24 14:29 166 2 gusting 6 17.8
2020-Jan-24 14:24 172 1 gusting 4 17.8
2020-Jan-24 14:19 197 1 gusting 4 17.2
2020-Jan-24 14:09 204 2 gusting 4 17.2
2020-Jan-24 14:04 173 2 gusting 6 16.7
2020-Jan-24 13:59 202 2 gusting 6 16.7
2020-Jan-24 13:54 188 2 gusting 5 16.7
2020-Jan-24 13:49 102 1 gusting 5 16.7
2020-Jan-24 13:44 220 1 gusting 5 16.7
2020-Jan-24 13:39 171 1 gusting 4 16.1
2020-Jan-24 13:34 196 1 gusting 4 16.1
2020-Jan-24 13:29 208 1 gusting 3 16.1
2020-Jan-24 13:24 219 1 gusting 3 15.6
2020-Jan-24 13:19 166 1 gusting 3 15.6
2020-Jan-24 13:14 182 0 gusting 2 15.6
2020-Jan-24 13:09 162 0 gusting 3 15.6
2020-Jan-24 13:04 090 1 gusting 3 15.6
2020-Jan-24 12:59 15.6
2020-Jan-24 12:54 116 1 gusting 3 15.6
2020-Jan-24 12:49 15.6
2020-Jan-24 12:44 153 0 gusting 2 15.6
2020-Jan-24 12:39 130 0 gusting 2 15.6
2020-Jan-24 12:34 141 0 gusting 3 15.6
2020-Jan-24 12:29 15.6
2020-Jan-24 12:24 166 2 gusting 5 15.6
2020-Jan-24 12:19 143 2 gusting 5 15.6
2020-Jan-24 12:14 124 1 gusting 4 15.6
2020-Jan-24 12:09 137 1 gusting 2 15.6
2020-Jan-24 12:04 142 1 gusting 3 15.6
2020-Jan-24 11:59 167 1 gusting 5 15.0
2020-Jan-24 11:54 149 2 gusting 5 15.0
2020-Jan-24 11:49 141 2 gusting 5 15.0
2020-Jan-24 11:44 139 1 gusting 5 15.0
2020-Jan-24 11:39 109 0 gusting 4 15.0
2020-Jan-24 11:34 141 0 gusting 2 15.0
2020-Jan-24 11:29 158 15.0
2020-Jan-24 11:24 15.0
2020-Jan-24 11:19 15.0
2020-Jan-24 11:14 15.0
2020-Jan-24 11:09 103 1 gusting 2 15.0
2020-Jan-24 11:04 142 0 gusting 2 15.0
2020-Jan-24 10:59 15.0
2020-Jan-24 10:54 15.0
2020-Jan-24 10:49 15.0
2020-Jan-24 10:44 15.0
2020-Jan-24 10:39 118 0 gusting 1 15.0
2020-Jan-24 10:34 119 0 gusting 1 15.0
2020-Jan-24 10:29 039 15.0
2020-Jan-24 10:24 15.0
2020-Jan-24 10:19 296 0 gusting 1 15.0
2020-Jan-24 10:14 298 15.0
2020-Jan-24 10:04 15.0
2020-Jan-24 09:59 118 1 gusting 2 15.0
2020-Jan-24 09:54 079 1 gusting 2 15.0
2020-Jan-24 09:49 15.0
2020-Jan-24 09:44 147 1 gusting 2 15.0
2020-Jan-24 09:39 093 1 gusting 2 15.0
2020-Jan-24 09:34 134 0 gusting 1 15.0
2020-Jan-24 09:29 137 15.0
2020-Jan-24 09:24 070 15.0
2020-Jan-24 09:19 15.0
2020-Jan-24 09:14 15.0
2020-Jan-24 09:09 15.0
2020-Jan-24 09:04 15.0
2020-Jan-24 08:59 15.0
2020-Jan-24 08:54 15.0
2020-Jan-24 08:49 15.0
2020-Jan-24 08:44 095 0 gusting 3 15.0
2020-Jan-24 08:39 124 0 gusting 3 15.0
2020-Jan-24 08:34 082 15.0
2020-Jan-24 08:29 088 15.0
2020-Jan-24 08:24 15.0
2020-Jan-24 08:19 299 15.0
2020-Jan-24 08:14 15.0
2020-Jan-24 08:09 15.0
2020-Jan-24 08:04 060 15.0
2020-Jan-24 07:59 14.4
2020-Jan-24 07:54 15.0
2020-Jan-24 07:49 078 0 gusting 1 14.4
2020-Jan-24 07:44 071 0 gusting 1 15.0
2020-Jan-24 07:39 15.0
2020-Jan-24 07:34 15.0
2020-Jan-24 07:29 102 1 gusting 2 15.0
2020-Jan-24 07:24 129 0 gusting 2 15.0
2020-Jan-24 07:19 15.0
2020-Jan-24 07:14 14.4
2020-Jan-24 07:09 310 0 gusting 2 15.0
2020-Jan-24 07:04 091 15.0
2020-Jan-24 06:59 348 15.0
2020-Jan-24 06:54 286 0 gusting 2 15.0
2020-Jan-24 06:49 311 0 gusting 1 14.4
2020-Jan-24 06:44 15.0
2020-Jan-24 06:39 306 0 gusting 2 15.0
2020-Jan-24 06:34 059 0 gusting 2 15.0
2020-Jan-24 06:29 079 0 gusting 2 15.0
2020-Jan-24 06:24 15.0
2020-Jan-24 06:19 139 0 gusting 3 15.0
2020-Jan-24 06:14 089 0 gusting 2 15.0
2020-Jan-24 06:09 151 1 gusting 2 15.0
2020-Jan-24 06:04 097 0 gusting 2 15.0
2020-Jan-24 05:59 065 0 gusting 2 15.0
2020-Jan-24 05:54 14.4
2020-Jan-24 05:49 14.4
2020-Jan-24 05:44 15.0
2020-Jan-24 05:39 15.0
2020-Jan-24 05:34 060 0 gusting 2 14.4
2020-Jan-24 05:29 335 0 gusting 2 15.0
2020-Jan-24 05:24 14.4
2020-Jan-24 05:19 084 0 gusting 2 14.4
2020-Jan-24 05:14 090 1 gusting 2 14.4
2020-Jan-24 05:09 069 1 gusting 3 14.4
2020-Jan-24 05:04 083 1 gusting 3 14.4
2020-Jan-24 04:59 074 1 gusting 3 15.0
2020-Jan-24 04:54 14.4
2020-Jan-24 04:49 019 1 gusting 3 14.4
2020-Jan-24 04:44 081 0 gusting 3 15.0
2020-Jan-24 04:39 074 1 gusting 3 14.4
2020-Jan-24 04:34 104 1 gusting 3 14.4
2020-Jan-24 04:29 081 1 gusting 2 14.4
2020-Jan-24 04:24 107 0 gusting 2 14.4
2020-Jan-24 04:19 137 0 gusting 3 14.4
2020-Jan-24 04:14 134 1 gusting 5 14.4
2020-Jan-24 04:09 078 1 gusting 5 14.4
2020-Jan-24 04:04 080 1 gusting 4 14.4
2020-Jan-24 03:59 099 1 gusting 3 14.4
2020-Jan-24 03:54 124 1 gusting 4 14.4
2020-Jan-24 03:49 127 2 gusting 5 14.4
2020-Jan-24 03:44 065 1 gusting 5 14.4
2020-Jan-24 03:39 099 1 gusting 4 14.4
2020-Jan-24 03:34 081 1 gusting 4 14.4
2020-Jan-24 03:29 14.4
2020-Jan-24 03:24 099 1 gusting 3 14.4
2020-Jan-24 03:19 077 1 gusting 3 14.4
2020-Jan-24 03:14 14.4
2020-Jan-24 03:09 104 1 gusting 3 13.9
2020-Jan-24 03:04 159 1 gusting 4 13.9
2020-Jan-24 02:59 068 1 gusting 4 13.9
2020-Jan-24 02:54 080 1 gusting 3 13.9
2020-Jan-24 02:49 073 0 gusting 4 13.9
2020-Jan-24 02:44 13.9
2020-Jan-24 02:39 056 1 gusting 4 13.9
2020-Jan-24 02:34 13.9
2020-Jan-24 02:29 051 1 gusting 5 13.9
2020-Jan-24 02:24 019 2 gusting 5 13.9
2020-Jan-24 02:19 048 2 gusting 5 13.9
2020-Jan-24 02:14 045 2 gusting 6 13.9
2020-Jan-24 02:09 082 3 gusting 6 13.9
2020-Jan-24 02:04 045 3 gusting 6 13.3
2020-Jan-24 01:59 077 3 gusting 8 13.3
2020-Jan-24 01:54 050 3 gusting 8 13.3
2020-Jan-24 01:49 077 2 gusting 7 13.3
2020-Jan-24 01:44 102 2 gusting 6 13.3
2020-Jan-24 01:39 086 2 gusting 6 13.3
2020-Jan-24 01:34 061 2 gusting 6 13.3
2020-Jan-24 01:29 080 2 gusting 6 13.3
2020-Jan-24 01:23 153 3 gusting 7 13.3
2020-Jan-24 01:18 077 3 gusting 7 13.3
2020-Jan-24 01:14 066 3 gusting 10 13.3
2020-Jan-24 01:09 126 4 gusting 10 13.3
2020-Jan-24 01:04 055 4 gusting 11 13.3
2020-Jan-24 00:59 050 4 gusting 12 13.3
2020-Jan-24 00:54 076 4 gusting 12 13.3
2020-Jan-24 00:48 072 4 gusting 9 13.3
2020-Jan-24 00:44 044 3 gusting 9 13.3
2020-Jan-24 00:39 008 3 gusting 10 13.3
2020-Jan-24 00:34 068 4 gusting 10 13.3
2020-Jan-24 00:29 088 4 gusting 9 13.3
2020-Jan-24 00:24 068 3 gusting 9 13.3
2020-Jan-24 00:18 072 3 gusting 10 13.3
2020-Jan-24 00:13 063 4 gusting 10 13.3
2020-Jan-24 00:08 089 4 gusting 10 13.3
2020-Jan-24 00:03 062 4 gusting 10 13.3
2020-Jan-23 23:58 060 4 gusting 10 13.3
2020-Jan-23 23:53 065 5 gusting 12 13.3
2020-Jan-23 23:48 062 5 gusting 12 13.3
2020-Jan-23 23:43 052 4 gusting 9 13.3
2020-Jan-23 23:38 017 4 gusting 12 13.3
2020-Jan-23 23:33 067 4 gusting 12 13.3
2020-Jan-23 23:28 059 4 gusting 10 13.3
2020-Jan-23 23:23 085 4 gusting 10 13.3
2020-Jan-23 23:18 080 4 gusting 10 13.3
2020-Jan-23 23:13 072 3 gusting 9 13.3
2020-Jan-23 23:08 123 3 gusting 9 13.3
2020-Jan-23 23:03 119 3 gusting 10 13.3
2020-Jan-23 22:58 042 4 gusting 10 13.3
2020-Jan-23 22:53 094 3 gusting 9 13.3
2020-Jan-23 22:48 082 3 gusting 9 13.3
2020-Jan-23 22:43 074 5 gusting 13 13.3
2020-Jan-23 22:38 062 5 gusting 13 13.3
2020-Jan-23 22:33 106 5 gusting 11 13.3
2020-Jan-23 22:28 072 5 gusting 14 13.3
2020-Jan-23 22:23 067 5 gusting 14 13.3
2020-Jan-23 22:18 036 5 gusting 11 13.9
2020-Jan-23 22:13 109 5 gusting 11 13.9
2020-Jan-23 22:08 055 5 gusting 13 13.9
2020-Jan-23 22:03 076 6 gusting 13 13.9
2020-Jan-23 21:58 047 5 gusting 12 13.9
2020-Jan-23 21:53 045 5 gusting 13 13.9
2020-Jan-23 21:48 056 5 gusting 13 13.9
2020-Jan-23 21:43 075 5 gusting 12 13.9
2020-Jan-23 21:38 070 5 gusting 12 13.9
2020-Jan-23 21:33 076 6 gusting 14 13.9
2020-Jan-23 21:28 075 6 gusting 14 14.4
2020-Jan-23 21:23 136 6 gusting 13 14.4
2020-Jan-23 21:18 064 5 gusting 13 14.4
2020-Jan-23 21:13 053 5 gusting 13 14.4
2020-Jan-23 21:08 083 6 gusting 14 14.4
2020-Jan-23 21:03 105 5 gusting 14 14.4
2020-Jan-23 20:58 071 6 gusting 11 15.0
2020-Jan-23 20:53 065 6 gusting 18 15.0
2020-Jan-23 20:48 065 6 gusting 18 15.0
2020-Jan-23 20:43 145 6 gusting 12 15.0
2020-Jan-23 20:38 109 5 gusting 11 15.0
2020-Jan-23 20:33 127 5 gusting 11 15.6
2020-Jan-23 20:28 109 5 gusting 11 15.6
2020-Jan-23 20:23 124 5 gusting 9 15.6
2020-Jan-23 20:18 114 4 gusting 11 15.6
2020-Jan-23 20:13 065 5 gusting 11 15.6
2020-Jan-23 20:08 100 5 gusting 9 15.6
2020-Jan-23 20:03 057 5 gusting 11 15.6
2020-Jan-23 19:58 066 4 gusting 11 16.1
2020-Jan-23 19:28 112 3 gusting 8 16.1
2020-Jan-23 19:18 126 4 gusting 8 16.1
2020-Jan-23 19:13 093 4 gusting 9 16.1
2020-Jan-23 19:08 139 4 gusting 9 16.7
2020-Jan-23 19:03 075 4 gusting 11 16.7
2020-Jan-23 18:58 082 5 gusting 11 16.7
2020-Jan-23 18:53 066 5 gusting 11 16.7
2020-Jan-23 18:48 061 5 gusting 12 16.7
2020-Jan-23 18:38 067 5 gusting 10 16.1
2020-Jan-23 18:33 101 5 gusting 12 16.7
2020-Jan-23 18:28 025 6 gusting 13 16.7
2020-Jan-23 18:23 107 6 gusting 13 16.1
2020-Jan-23 18:13 055 5 gusting 10 16.1
2020-Jan-23 18:06 064 5 gusting 11 16.1
2020-Jan-23 17:56 078 6 gusting 13 16.1
2020-Jan-23 17:53 078 6 gusting 13 16.1
2020-Jan-23 17:43 035 5 gusting 12 16.1
2020-Jan-23 17:35 142 5 gusting 12 16.7
2020-Jan-23 17:28 065 4 gusting 11 16.7
2020-Jan-23 17:18 018 5 gusting 11 16.1
2020-Jan-23 17:05 063 5 gusting 13 16.1
2020-Jan-23 17:03 053 5 gusting 13 16.1
2020-Jan-23 16:58 059 5 gusting 10 16.1
2020-Jan-23 16:48 056 5 gusting 10 15.6
2020-Jan-23 16:43 226 5 gusting 10 16.1
2020-Jan-23 16:38 089 5 gusting 11 16.1
2020-Jan-23 16:33 063 6 gusting 13 16.1
2020-Jan-23 16:28 075 6 gusting 13 16.1
2020-Jan-23 16:23 046 5 gusting 14 16.1
2020-Jan-23 16:13 16.1
2020-Jan-23 16:08 102 5 gusting 11 15.6
2020-Jan-23 16:03 073 5 gusting 11 15.6
2020-Jan-23 15:53 077 5 gusting 11 15.6
2020-Jan-23 15:48 066 5 gusting 13 15.6
2020-Jan-23 15:38 032 5 gusting 13 15.6
2020-Jan-23 15:28 070 5 gusting 11 15.6
2020-Jan-23 15:23 052 5 gusting 11 15.6
2020-Jan-23 15:18 048 5 gusting 11 15.0
2020-Jan-23 15:13 057 5 gusting 16 14.4
2020-Jan-23 15:05 083 6 gusting 18 14.4
2020-Jan-23 15:00 162 6 gusting 13 13.9